Location: Bottenau
(48.5138°N, 8.0462°E)
Time: 19:49:36
(UTC+00:00)

Lacrosse 5 rocket - Pass Details

Date: 18 April 2021
Orbit: 460 x 635 km, 57.0° (Epoch: 17 May)

Event Time Altitude Azimuth Distance (km) Brightness Sun altitude
Rises 19:25:06 0° 267° (W) 2,659 5.9 -10.1°
Reaches altitude 10° 19:27:25 10° 277° (W) 1,802 5.1 -10.5°
Maximum altitude 19:31:09 33° 343° (NNW) 955 3.0 -11.0°
Drops below altitude 10° 19:35:05 10° 48° (NE) 1,908 3.9 -11.5°
Sets 19:37:36 0° 58° (ENE) 2,840 4.7 -11.9°
